This is the latest recevied weather packets stored in our database for station/object KK4PWJ-13. If no packets are shown the sender has not sent any weather packets the latest 1 day(s).
| Time | Temp. | Humidity | Pressure | Rain* | Wind** | Luminosity | Snow |
|---|---|---|---|---|---|---|---|
| 1778036899 | 19.44° C | 66% | 1012.9 hPa | 0 mm | - | 0 W/m² | - |
| 1778036597 | 20° C | 66% | 1013 hPa | 0 mm | - | 0 W/m² | - |
| 1778036294 | 20° C | 65% | 1013 hPa | 0 mm | - | 0 W/m² | - |
| 1778035990 | 19.44° C | 65% | 1013 hPa | 0 mm | - | 0 W/m² | - |
| 1778035384 | 19.44° C | 65% | 1013 hPa | 0 mm | - | 0 W/m² | - |
| 1778035080 | 19.44° C | 65% | 1013.2 hPa | 0 mm | - | 0 W/m² | - |
| 1778034473 | 20° C | 63% | 1013.2 hPa | 0 mm | - | 0 W/m² | - |
| 1778034172 | 19.44° C | 63% | 1013 hPa | 0 mm | - | 0 W/m² | - |
| 1778033869 | 18.89° C | 64% | 1013.1 hPa | 0 mm | - | 0 W/m² | - |
| 1778033566 | 18.89° C | 64% | 1013.2 hPa | 0 mm | - | 0 W/m² | - |
| 1778033263 | 18.33° C | 64% | 1013 hPa | 0 mm | - | 0 W/m² | - |
| 1778032961 | 18.33° C | 64% | 1013 hPa | 0 mm | - | 0 W/m² | - |
| 1778032658 | 18.33° C | 64% | 1012.8 hPa | 0 mm | - | 0 W/m² | - |
| 1778032356 | 18.33° C | 64% | 1012.9 hPa | 0 mm | - | 0 W/m² | - |
| 1778032052 | 18.33° C | 65% | 1012.8 hPa | 0 mm | - | 0 W/m² | - |
| 1778031446 | 18.33° C | 68% | 1012.5 hPa | 0 mm | - | 0 W/m² | - |
| 1778031143 | 18.89° C | 65% | 1012.3 hPa | 0 mm | - | 0 W/m² | - |
| 1778030839 | 18.89° C | 64% | 1012.4 hPa | 0 mm | - | 0 W/m² | - |
| 1778030234 | 19.44° C | 63% | 1012.2 hPa | 0 mm | - | 0 W/m² | - |
| 1778029930 | 19.44° C | 62% | 1012.5 hPa | 0 mm | - | 0 W/m² | - |
| 1778028719 | 20.56° C | 57% | 1012.2 hPa | 0 mm | - | 0 W/m² | - |
| 1778028415 | 20.56° C | 57% | 1011.9 hPa | 0 mm | - | 0 W/m² | - |
| 1778028113 | 20.56° C | 54% | 1012 hPa | 0 mm | - | 0 W/m² | - |
| 1778027809 | 20.56° C | 53% | 1011.9 hPa | 0 mm | - | 0 W/m² | - |
| 1778027505 | 21.11° C | 55% | 1011.8 hPa | 0 mm | - | 0 W/m² | - |
* Rain latest hour (hover to see other rain measurements)
** Current wind speed in m/s (hover to see current wind gust speed)